FW2156 Weather Reports


time (UTC)temp
C
wind
direction
speed
KPH
gust
KPH
rain 1hr
cm
rain 24hr
cm
rain mn
cm
humidity
%
barometer
mb
20260906234525 14 151 1.6 1.6 0.00 0.00 0.15 91 1013.9
20260906234026 14 227 0.0 1.6 0.00 0.00 0.15 91 1013.9
20260906233525 14 165 0.0 0.0 0.00 0.00 0.15 92 1013.9
20260906233025 14 138 0.0 1.6 0.00 0.00 0.15 92 1013.9
20260906232524 14 106 0.0 1.6 0.00 0.00 0.15 92 1013.9
20260906232024 14 198 0.0 0.0 0.00 0.00 0.15 92 1013.9
20260906231525 14 146 0.0 0.0 0.00 0.00 0.15 93 1013.9
20260906231025 14 173 0.0 1.6 0.00 0.00 0.15 93 1014.2
20260906230524 14 115 3.2 3.2 0.00 0.00 0.15 93 1014.2
20260906230053 14 140 0.0 0.0 0.00 0.00 0.15 93 1014.2
20260906225524 14 155 0.0 1.6 0.00 0.00 0.15 92 1014.2
20260906225023 14 119 3.2 4.8 0.00 0.00 0.15 92 1014.2
20260906224523 14 180 0.0 1.6 0.00 0.00 0.15 92 1014.2
20260906224022 13 236 0.0 1.6 0.00 0.00 0.15 91 1014.2
20260906223439 13 175 0.0 1.6 0.00 0.00 0.15 91 1014.2
20260906222940 13 85 0.0 1.6 0.00 0.00 0.15 93 1014.2
20260906222437 13 259 0.0 0.0 0.00 0.00 0.15 95 1014.2
20260906221937 13 191 0.0 1.6 0.00 0.00 0.15 95 1014.2
20260906221438 13 111 3.2 3.2 0.00 0.00 0.15 95 1014.2
20260906220936 13 230 0.0 0.0 0.00 0.00 0.15 95 1014.2
20260906220438 13 309 0.0 1.6 0.00 0.00 0.15 95 1014.2
20260906215941 13 111 1.6 1.6 0.00 0.00 0.15 95 1014.6
20260906215436 13 90 3.2 3.2 0.00 0.00 0.15 95 1014.2
20260906214940 13 192 0.0 0.0 0.00 0.00 0.15 95 1014.6
20260906214436 13 142 0.0 0.0 0.00 0.00 0.15 96 1014.6
20260906213935 13 211 0.0 0.0 0.00 0.00 0.15 97 1014.6
20260906213436 13 287 1.6 1.6 0.00 0.00 0.15 97 1014.6
20260906212936 13 189 0.0 0.0 0.00 0.00 0.15 97 1014.6
20260906212436 12 191 0.0 0.0 0.00 0.00 0.15 98 1014.6
20260906211940 12 230 0.0 0.0 0.00 0.00 0.15 98 1014.6
20260906211436 12 183 0.0 0.0 0.00 0.00 0.15 98 1014.6
20260906210935 12 174 0.0 0.0 0.00 0.00 0.15 98 1014.2
20260906210441 12 184 0.0 0.0 0.00 0.00 0.15 99 1014.6
20260906205939 12 112 0.0 0.0 0.00 0.00 0.15 99 1014.6
20260906205438 12 246 0.0 1.6 0.00 0.00 0.15 99 1014.6
20260906204938 12 190 0.0 0.0 0.00 0.00 0.15 99 1014.6
20260906204441 12 154 0.0 0.0 0.00 0.00 0.15 99 1014.6
20260906203936 12 166 0.0 0.0 0.00 0.00 0.15 99 1014.6
20260906203438 12 217 0.0 0.0 0.00 0.00 0.15 99 1014.6
20260906202937 12 182 0.0 0.0 0.00 0.00 0.15 99 1014.6
20260906202442 12 163 0.0 0.0 0.00 0.00 0.15 99 1014.6
20260906201940 12 180 0.0 0.0 0.00 0.00 0.15 99 1014.6
20260906201441 11 216 0.0 0.0 0.00 0.00 0.15 99 1014.6
20260906200943 11 177 0.0 0.0 0.00 0.00 0.15 99 1014.9
20260906200437 11 182 0.0 0.0 0.00 0.00 0.15 99 1014.9
20260906195939 11 204 0.0 0.0 0.00 0.00 0.15 99 1014.9
20260906195445 11 139 0.0 0.0 0.00 0.00 0.15 99 1014.9
20260906194936 11 133 0.0 1.6 0.00 0.00 0.15 99 1014.9
20260906194438 11 187 0.0 0.0 0.00 0.00 0.15 99 1014.9
20260906193941 11 121 1.6 1.6 0.00 0.00 0.15 99 1014.9
20260906193441 11 98 0.0 1.6 0.00 0.00 0.15 99 1014.9
20260906192942 11 179 0.0 0.0 0.00 0.00 0.15 99 1014.9
20260906192438 11 172 0.0 0.0 0.00 0.00 0.15 99 1014.9
20260906191945 11 121 1.6 4.8 0.00 0.00 0.15 99 1014.9
20260906191440 11 191 0.0 0.0 0.00 0.00 0.15 99 1014.9
20260906190937 11 116 1.6 1.6 0.00 0.00 0.15 99 1015.2
20260906190441 10 167 0.0 1.6 0.00 0.00 0.15 99 1015.2
20260906185911 10 135 0.0 0.0 0.00 0.00 0.15 99 1015.2
20260906185420 10 113 3.2 3.2 0.00 0.00 0.15 99 1015.2
20260906184912 10 108 4.8 4.8 0.00 0.00 0.15 99 1015.2
20260906184414 10 167 3.2 3.2 0.00 0.00 0.15 99 1015.2
20260906183912 10 126 1.6 3.2 0.00 0.00 0.15 99 1015.2
20260906183413 10 160 0.0 0.0 0.00 0.00 0.15 99 1015.2
20260906182914 10 112 3.2 4.8 0.00 0.00 0.13 99 1015.2
20260906182412 10 136 3.2 3.2 0.00 0.00 0.13 99 1015.2
20260906181912 10 128 1.6 1.6 0.00 0.00 0.13 99 1015.2
20260906181413 10 127 3.2 3.2 0.00 0.00 0.13 99 1015.2
20260906180911 10 170 0.0 1.6 0.00 0.00 0.13 99 1015.2
20260906180411 10 157 0.0 0.0 0.00 0.00 0.13 99 1015.2
20260906175912 10 185 0.0 0.0 0.00 0.00 0.13 99 1015.2
20260906175411 10 107 0.0 1.6 0.00 0.00 0.13 99 1015.6
20260906174913 10 23 0.0 0.0 0.00 0.00 0.13 99 1015.6
20260906174412 10 12 1.6 1.6 0.00 0.00 0.13 99 1015.6
20260906173912 9 152 0.0 0.0 0.00 0.00 0.13 99 1015.6
20260906173413 9 214 0.0 0.0 0.00 0.00 0.13 99 1015.6
20260906172911 9 180 0.0 0.0 0.00 0.00 0.13 99 1015.6
20260906172414 9 194 0.0 0.0 0.00 0.00 0.13 99 1015.6
20260906171914 9 177 0.0 0.0 0.00 0.00 0.10 99 1015.9
20260906171413 9 177 0.0 0.0 0.00 0.00 0.10 99 1015.6
20260906170914 9 229 0.0 0.0 0.00 0.00 0.08 99 1015.9
20260906170415 9 221 0.0 0.0 0.00 0.00 0.08 99 1015.9
20260906165912 9 250 0.0 0.0 0.00 0.00 0.08 99 1015.9
20260906165414 9 215 0.0 0.0 0.00 0.00 0.08 99 1015.6
20260906164839 8 224 0.0 0.0 0.00 0.00 0.08 99 1015.9
20260906164315 8 6 0.0 0.0 0.00 0.00 0.08 99 1015.9
20260906163813 8 187 0.0 0.0 0.00 0.00 0.08 99 1015.9
20260906163212 8 156 0.0 0.0 0.00 0.00 0.08 99 1016.3
20260906162714 8 178 0.0 0.0 0.00 0.00 0.08 99 1016.3
20260906162219 8 153 0.0 0.0 0.00 0.00 0.08 99 1016.3
20260906161710 8 255 0.0 0.0 0.00 0.00 0.08 99 1016.3
20260906161155 8 250 0.0 0.0 0.00 0.00 0.08 99 1016.3
20260906160544 8 213 0.0 0.0 0.00 0.00 0.08 99 1016.3
20260906160046 8 180 0.0 0.0 0.00 0.00 0.08 99 1016.3
20260906155442 8 155 0.0 0.0 0.00 0.00 0.08 99 1016.3
20260906154950 8 158 0.0 0.0 0.00 0.00 0.08 99 1016.3
20260906154353 8 105 1.6 1.6 0.00 0.00 0.08 99 1016.3
20260906153800 8 115 0.0 1.6 0.00 0.00 0.08 99 1015.9
20260906153211 8 229 0.0 0.0 0.00 0.00 0.08 99 1016.3
20260906152640 8 172 0.0 0.0 0.00 0.00 0.08 99 1016.3
20260906152144 8 169 0.0 0.0 0.00 0.00 0.08 99 1015.9
20260906151555 8 169 0.0 0.0 0.00 0.00 0.08 99 1016.3
20260906151040 8 223 0.0 1.6 0.00 0.00 0.08 99 1015.9
20260906150539 8 230 0.0 0.0 0.00 0.00 0.08 99 1016.3
20260906145951 8 221 0.0 0.0 0.00 0.00 0.08 99 1016.3
20260906145441 8 241 0.0 0.0 0.00 0.00 0.08 99 1016.3
20260906144927 8 210 0.0 0.0 0.00 0.00 0.08 99 1016.3
20260906144349 8 161 0.0 0.0 0.00 0.00 0.08 99 1016.3
20260906143840 8 169 0.0 0.0 0.00 0.00 0.08 99 1016.3
20260906143338 8 177 0.0 0.0 0.00 0.00 0.08 99 1016.3
20260906142803 8 224 0.0 0.0 0.00 0.00 0.08 99 1015.9
20260906142240 8 242 0.0 0.0 0.00 0.00 0.08 99 1016.3
20260906141740 8 227 0.0 0.0 0.00 0.00 0.08 99 1016.3
20260906141212 8 276 1.6 1.6 0.00 0.00 0.08 99 1016.3
20260906140635 8 251 0.0 1.6 0.00 0.00 0.08 99 1016.3
20260906135535 8 238 0.0 0.0 0.00 0.00 0.08 99 1016.3
20260906135014 8 233 0.0 0.0 0.00 0.00 0.08 99 1016.3
20260906134454 8 233 0.0 0.0 0.00 0.00 0.08 99 1015.9
20260906133934 8 229 0.0 0.0 0.00 0.00 0.08 99 1016.3
20260906133419 8 233 0.0 0.0 0.00 0.00 0.08 99 1016.3
20260906132913 8 229 0.0 0.0 0.00 0.00 0.08 99 1016.3
20260906132352 8 229 0.0 0.0 0.00 0.00 0.08 99 1016.3
20260906131844 8 251 0.0 0.0 0.00 0.00 0.08 99 1016.3
20260906131336 8 240 0.0 0.0 0.00 0.00 0.08 99 1016.3
20260906130822 8 242 0.0 1.6 0.00 0.00 0.08 99 1016.6
20260906130313 8 254 1.6 1.6 0.00 0.00 0.08 99 1016.3
20260906125750 8 278 0.0 1.6 0.00 0.00 0.08 99 1016.6
20260906125239 8 222 0.0 0.0 0.00 0.00 0.08 99 1016.6
20260906124730 8 188 0.0 0.0 0.00 0.00 0.08 99 1016.6
20260906124224 8 156 0.0 0.0 0.00 0.00 0.08 99 1016.6
20260906123714 8 175 0.0 0.0 0.00 0.00 0.05 99 1016.6
20260906123215 8 210 0.0 0.0 0.00 0.00 0.05 99 1016.6
20260906122714 8 219 0.0 0.0 0.00 0.00 0.05 99 1016.6
20260906122215 8 245 1.6 1.6 0.00 0.00 0.03 99 1016.6
20260906121714 8 248 0.0 0.0 0.00 0.00 0.03 99 1016.9
20260906121212 8 170 0.0 0.0 0.00 0.00 0.03 99 1016.9
20260906120738 8 175 0.0 0.0 0.00 0.00 0.03 99 1016.9
20260906120214 8 131 0.0 0.0 0.00 0.00 0.03 99 1016.9
20260906115737 8 140 0.0 0.0 0.00 0.00 0.00 99 1017.3
20260906115239 8 171 0.0 0.0 0.00 0.00 0.00 99 1017.3
20260906114738 8 213 0.0 0.0 0.00 0.00 0.00 99 1017.3
20260906114301 8 227 0.0 0.0 0.00 0.00 0.00 99 1017.6
20260906113803 8 235 0.0 0.0 0.00 0.00 0.00 99 1017.6
20260906113301 8 228 0.0 0.0 0.00 0.00 0.00 99 1017.6
20260906112801 8 232 0.0 1.6 0.00 0.00 0.00 99 1017.3
20260906112306 8 228 0.0 0.0 0.00 0.00 0.00 99 1017.6
20260906111801 8 260 0.0 1.6 0.00 0.00 0.00 99 1017.6
20260906111301 8 252 0.0 0.0 0.00 0.00 0.00 99 1017.6
20260906110801 8 237 1.6 1.6 0.00 0.00 0.00 99 1017.6
20260906110300 8 246 0.0 1.6 0.00 0.00 0.00 99 1017.6
20260906105800 8 233 0.0 0.0 0.00 0.00 0.00 99 1017.6
20260906105301 8 260 0.0 1.6 0.00 0.00 0.00 99 1017.6
20260906104759 8 220 0.0 0.0 0.00 0.00 0.00 99 1017.6
20260906104259 8 230 0.0 0.0 0.00 0.00 0.00 99 1017.9
20260906103759 8 203 0.0 0.0 0.00 0.00 0.00 99 1017.6
20260906103302 8 194 0.0 0.0 0.00 0.00 0.00 99 1017.6
20260906102759 8 220 0.0 0.0 0.00 0.00 0.00 99 1017.6
20260906102259 8 232 0.0 0.0 0.00 0.00 0.00 99 1017.3
20260906101758 8 208 0.0 0.0 0.00 0.00 0.00 99 1017.3
20260906101304 8 255 0.0 0.0 0.00 0.00 0.00 99 1017.3
20260906100759 8 228 0.0 0.0 0.00 0.00 0.00 99 1017.6
20260906100258 8 222 0.0 0.0 0.00 0.00 0.00 99 1017.6
20260906095757 8 221 0.0 0.0 0.00 0.00 0.00 99 1017.6
20260906095257 8 167 0.0 0.0 0.00 0.00 0.00 99 1017.3
20260906094756 8 170 0.0 0.0 0.00 0.00 0.00 99 1017.6
20260906094255 8 208 0.0 0.0 0.00 0.00 0.00 99 1017.3
20260906093755 8 223 0.0 0.0 0.00 0.00 0.00 99 1017.6
20260906093254 8 223 0.0 0.0 0.00 0.00 0.00 99 1017.6
20260906092754 8 228 0.0 0.0 0.00 0.00 0.00 99 1017.9
20260906092253 8 247 0.0 0.0 0.00 0.00 0.00 99 1017.6
20260906091754 8 247 0.0 1.6 0.00 0.00 0.00 99 1017.6
20260906091253 8 255 0.0 0.0 0.00 0.00 0.00 99 1017.6
20260906090752 8 226 0.0 0.0 0.00 0.00 0.00 99 1017.6
20260906090253 8 227 0.0 0.0 0.00 0.00 0.00 99 1017.9
20260906085754 9 215 0.0 0.0 0.00 0.00 0.00 99 1017.9
20260906085252 9 199 0.0 0.0 0.00 0.00 0.00 99 1017.9
20260906084751 9 199 0.0 0.0 0.00 0.00 0.00 99 1017.9
20260906084249 9 199 0.0 0.0 0.00 0.00 0.00 99 1017.9
20260906083750 9 188 0.0 0.0 0.00 0.00 0.00 99 1017.9
20260906083250 9 179 0.0 0.0 0.00 0.00 0.00 99 1018.3
20260906082749 9 180 0.0 0.0 0.00 0.00 0.00 99 1018.3
20260906082248 9 180 0.0 0.0 0.00 0.00 0.00 99 1018.3
20260906081747 9 180 0.0 0.0 0.00 0.00 0.00 99 1018.6
20260906081247 9 172 0.0 0.0 0.00 0.00 0.00 99 1018.6
20260906080747 9 151 0.0 0.0 0.00 0.00 0.00 99 1018.6
20260906080250 9 203 0.0 0.0 0.00 0.00 0.00 99 1018.6
20260906075748 9 201 0.0 0.0 0.00 0.00 0.00 99 1018.6
20260906075248 9 197 0.0 0.0 0.00 0.00 0.00 99 1018.3
20260906074747 9 217 0.0 0.0 0.00 0.00 0.00 99 1018.3
20260906074247 9 227 0.0 0.0 0.00 0.00 0.00 99 1018.3
20260906073747 9 205 0.0 0.0 0.00 0.00 0.00 99 1018.3
20260906073245 9 245 0.0 1.6 0.00 0.00 0.00 99 1018.3
20260906072746 9 215 0.0 0.0 0.00 0.00 0.00 99 1018.6
20260906072245 9 177 0.0 0.0 0.00 0.00 0.00 99 1018.3
20260906071744 9 177 0.0 0.0 0.00 0.00 0.00 99 1018.6
20260906071245 9 177 0.0 0.0 0.00 0.00 0.00 99 1018.6
20260906070743 9 177 0.0 0.0 0.00 0.00 0.00 99 1019.0
20260906070245 9 215 0.0 0.0 0.00 0.00 0.00 99 1018.6
20260906065744 9 198 0.0 0.0 0.00 0.00 0.00 99 1018.6
20260906065243 9 172 0.0 0.0 0.00 0.00 0.00 99 1018.6
20260906064743 9 171 0.0 0.0 0.00 0.00 0.00 99 1018.6
20260906064242 9 170 0.0 0.0 0.00 0.00 0.00 99 1018.6
20260906063742 9 200 0.0 0.0 0.00 0.00 0.00 99 1019.0
20260906063241 9 200 0.0 0.0 0.00 0.00 0.00 99 1019.0
20260906062742 9 194 0.0 0.0 0.00 0.00 0.00 99 1018.6
20260906062241 9 190 0.0 0.0 0.00 0.00 0.00 99 1019.0
20260906061741 9 184 0.0 0.0 0.00 0.00 0.00 99 1018.6
20260906061240 9 174 0.0 0.0 0.00 0.00 0.00 99 1018.6
20260906060742 9 164 0.0 0.0 0.00 0.00 0.00 99 1018.6
20260906060242 9 178 0.0 0.0 0.00 0.00 0.00 99 1018.6
20260906055740 9 179 0.0 0.0 0.00 0.00 0.64 99 1018.6
20260906055241 9 182 0.0 0.0 0.00 0.00 0.64 99 1018.6
20260906054741 9 217 0.0 0.0 0.00 0.00 0.64 99 1018.6
20260906054241 9 221 0.0 0.0 0.00 0.00 0.64 99 1018.6
20260906053739 9 226 0.0 0.0 0.00 0.00 0.64 99 1018.6
20260906053240 9 244 0.0 0.0 0.00 0.00 0.64 99 1018.6
20260906052739 9 231 1.6 1.6 0.00 0.00 0.64 99 1018.6
20260906052240 9 218 0.0 0.0 0.00 0.00 0.64 99 1019.0
20260906051740 9 237 1.6 1.6 0.00 0.00 0.64 99 1018.6
20260906051238 9 230 0.0 0.0 0.00 0.00 0.64 99 1018.6
20260906050737 9 244 1.6 1.6 0.00 0.00 0.64 99 1018.6
20260906050238 9 259 1.6 1.6 0.00 0.00 0.64 99 1018.6
20260906045737 9 274 1.6 3.2 0.00 0.00 0.64 99 1019.0
20260906045236 9 279 0.0 1.6 0.00 0.00 0.64 99 1019.0
20260906044736 9 240 0.0 0.0 0.00 0.00 0.64 99 1019.0
20260906044236 9 226 0.0 0.0 0.00 0.00 0.64 99 1019.0
20260906043735 9 225 0.0 0.0 0.00 0.00 0.64 99 1019.0
20260906043236 9 214 0.0 0.0 0.00 0.00 0.64 99 1019.0
20260906042735 9 244 0.0 1.6 0.00 0.00 0.64 99 1019.0
20260906042235 9 224 0.0 0.0 0.00 0.00 0.64 99 1019.0
20260906041734 9 226 0.0 0.0 0.00 0.00 0.64 99 1019.0
20260906041233 9 221 0.0 0.0 0.00 0.00 0.64 99 1019.0
20260906040735 9 232 0.0 0.0 0.00 0.00 0.64 99 1018.6
20260906040234 9 217 0.0 0.0 0.00 0.00 0.64 99 1019.0
20260906035733 9 220 0.0 0.0 0.00 0.00 0.64 99 1019.0
20260906035233 8 223 0.0 0.0 0.00 0.00 0.64 99 1018.6
20260906034732 8 212 0.0 0.0 0.00 0.00 0.64 99 1018.6
20260906034233 8 220 0.0 0.0 0.00 0.00 0.64 99 1018.6
20260906033733 8 212 0.0 0.0 0.00 0.00 0.64 99 1018.6
20260906033231 8 216 0.0 0.0 0.00 0.00 0.64 99 1018.3
20260906032732 8 204 0.0 0.0 0.00 0.00 0.64 99 1018.3
20260906032232 8 124 0.0 0.0 0.00 0.00 0.64 99 1018.3
20260906031732 8 169 0.0 0.0 0.00 0.00 0.64 99 1018.3
20260906031233 9 179 0.0 0.0 0.00 0.00 0.64 99 1018.3
20260906030730 9 181 0.0 0.0 0.00 0.00 0.64 99 1018.3
20260906030231 9 221 0.0 0.0 0.00 0.00 0.64 99 1018.3
20260906025730 9 233 0.0 0.0 0.00 0.00 0.64 99 1017.9
20260906025231 9 240 0.0 1.6 0.00 0.00 0.64 99 1017.9
20260906024732 9 190 0.0 0.0 0.00 0.00 0.64 99 1017.9
20260906024230 9 234 0.0 0.0 0.00 0.00 0.64 99 1017.9
20260906023730 9 219 0.0 0.0 0.00 0.00 0.64 99 1017.9
20260906023229 9 185 0.0 0.0 0.00 0.00 0.64 99 1017.9
20260906022730 9 193 0.0 0.0 0.00 0.00 0.64 99 1017.9
20260906022229 9 278 1.6 3.2 0.00 0.00 0.64 99 1017.9
20260906021728 9 192 0.0 0.0 0.00 0.00 0.64 99 1017.9
20260906021229 9 218 0.0 0.0 0.00 0.00 0.64 99 1018.3
20260906020729 9 253 1.6 1.6 0.00 0.00 0.64 99 1018.3
20260906020228 9 245 0.0 1.6 0.00 0.00 0.64 99 1018.3
20260906015729 9 227 0.0 0.0 0.00 0.00 0.64 99 1018.3
20260906015230 9 280 0.0 1.6 0.00 0.00 0.61 99 1018.3
20260906014729 9 227 0.0 0.0 0.00 0.00 0.61 99 1018.3
20260906014229 9 253 1.6 1.6 0.00 0.00 0.61 99 1018.6
20260906013726 9 236 0.0 1.6 0.00 0.00 0.61 99 1018.6
20260906013227 9 254 0.0 0.0 0.00 0.00 0.61 99 1018.3
20260906012727 9 209 0.0 0.0 0.00 0.00 0.61 99 1018.3
20260906012228 9 200 0.0 0.0 0.00 0.00 0.61 99 1018.3
20260906011727 9 208 0.0 0.0 0.00 0.00 0.61 99 1018.3
20260906011228 9 252 0.0 0.0 0.00 0.00 0.61 99 1018.3
20260906010725 9 315 0.0 1.6 0.00 0.00 0.61 99 1018.3
20260906010226 9 35 0.0 1.6 0.00 0.00 0.61 99 1017.9
20260906005725 9 32 0.0 0.0 0.00 0.00 0.61 99 1018.3
20260906005224 9 82 0.0 1.6 0.00 0.00 0.61 99 1017.9
20260906004731 9 191 0.0 0.0 0.00 0.00 0.61 99 1018.3
20260906004225 9 338 1.6 3.2 0.00 0.00 0.61 99 1017.9
20260906003724 10 120 0.0 1.6 0.00 0.00 0.61 99 1017.9
20260906003225 10 142 0.0 0.0 0.00 0.00 0.58 99 1017.9
20260906002724 10 105 0.0 1.6 0.00 0.00 0.58 99 1018.3
20260906002224 10 208 0.0 0.0 0.00 0.00 0.58 99 1018.3
20260906001723 9 136 0.0 1.6 0.00 0.00 0.58 99 1017.9
20260906001224 9 194 0.0 0.0 0.00 0.00 0.58 99 1017.9
20260906000724 9 178 0.0 0.0 0.00 0.00 0.58 99 1017.9
20260906000223 9 66 0.0 1.6 0.00 0.00 0.56 99 1017.9
20260905235723 9 199 0.0 0.0 0.00 0.00 0.56 99 1017.9
20260905235223 9 212 0.0 0.0 0.00 0.00 0.56 99 1018.3
20260905234723 9 124 0.0 0.0 0.00 0.00 0.56 99 1018.3